TimeJST,TemperatureF,Dew PointF,Humidity,Sea Level PressureIn,VisibilityMPH,Wind Direction,Wind SpeedMPH,Gust SpeedMPH,PrecipitationIn,Events,Conditions,WindDirDegrees,DateUTC
7:00 AM,28.4,26.6,93,29.71,6.2,SSW,2.3,-,N/A,Snow,Light Snow Showers,210,2012-11-19 22:00:00
8:00 AM,28.4,26.6,93,29.68,6.2,SSW,1.2,-,N/A,Snow,Light Snow Showers,210,2012-11-19 23:00:00
9:00 AM,30.2,28.4,93,29.68,6.2,SE,3.5,-,N/A,,Partly Cloudy,130,2012-11-20 00:00:00
10:00 AM,30.2,30.2,100,29.68,6.2,NW,1.2,-,N/A,,Partly Cloudy,320,2012-11-20 01:00:00
11:00 AM,30.2,28.4,93,29.65,6.2,Variable,2.3,-,N/A,,Partly Cloudy,0,2012-11-20 02:00:00
12:00 PM,33.8,30.2,87,29.65,6.2,Variable,1.2,-,N/A,,Partly Cloudy,0,2012-11-20 03:00:00
1:00 PM,33.8,28.4,81,29.62,6.2,North,4.6,-,N/A,Snow,Light Snow Showers,360,2012-11-20 04:00:00
2:00 PM,33.8,28.4,81,29.62,6.2,Variable,2.3,-,N/A,,Mostly Cloudy,0,2012-11-20 05:00:00
3:00 PM,33.8,30.2,87,29.62,6.2,SSE,2.3,-,N/A,,Mostly Cloudy,160,2012-11-20 06:00:00
4:00 PM,33.8,30.2,87,29.62,5.0,South,6.9,-,N/A,Snow,Light Snow Showers,180,2012-11-20 07:00:00
4:05 PM,33.8,30.2,87,29.62,-9999.0,South,6.9,-,N/A,Snow,Light Snow Showers,170,2012-11-20 07:05:00
4:29 PM,33.8,30.2,87,29.62,-9999.0,South,9.2,-,N/A,Snow,Light Snow Showers,170,2012-11-20 07:29:00
4:33 PM,33.8,30.2,87,29.62,1.4,South,9.2,-,N/A,Snow,Light Snow Showers,170,2012-11-20 07:33:00
4:39 PM,32.0,30.2,93,29.62,0.9,South,6.9,-,N/A,Snow,Light Snow Showers,170,2012-11-20 07:39:00
5:00 PM,32.0,30.2,93,29.62,1.0,South,6.9,-,N/A,Snow,Light Snow Showers,170,2012-11-20 08:00:00
5:29 PM,32.0,32.0,100,29.62,1.5,South,6.9,-,N/A,Snow,Light Snow Showers,180,2012-11-20 08:29:00
5:35 PM,32.0,32.0,100,29.62,3.1,South,6.9,-,N/A,Snow,Light Snow Showers,190,2012-11-20 08:35:00
5:47 PM,33.8,32.0,93,29.62,0.9,SSW,5.8,-,N/A,Snow,Light Snow Showers,200,2012-11-20 08:47:00
6:00 PM,32.0,30.2,93,29.62,0.6,WSW,5.8,-,N/A,Snow,Light Snow Showers,240,2012-11-20 09:00:00
6:26 PM,32.0,30.2,93,29.62,0.9,WNW,12.7,-,N/A,Snow,Light Snow Showers,290,2012-11-20 09:26:00
6:38 PM,32.0,30.2,93,29.62,1.0,WNW,11.5,-,N/A,Snow,Light Snow Showers,300,2012-11-20 09:38:00
6:45 PM,32.0,30.2,93,29.62,1.5,WNW,11.5,-,N/A,Snow,Light Snow Showers,300,2012-11-20 09:45:00
7:00 PM,32.0,30.2,93,29.65,3.1,WNW,11.5,-,N/A,Snow,Light Snow Showers,300,2012-11-20 10:00:00
7:46 PM,32.0,28.4,87,29.65,-9999.0,West,13.8,-,N/A,Snow,Light Snow Showers,280,2012-11-20 10:46:00
8:00 PM,30.2,30.2,100,29.65,0.9,WNW,13.8,-,N/A,Snow,Light Snow Showers,290,2012-11-20 11:00:00
8:03 PM,30.2,28.4,93,29.65,0.6,WNW,13.8,-,N/A,Snow,Snow Showers,290,2012-11-20 11:03:00
8:07 PM,30.2,30.2,100,29.65,0.6,WNW,12.7,-,N/A,Snow,Light Snow Showers,290,2012-11-20 11:07:00
8:14 PM,30.2,28.4,93,29.65,0.6,WNW,10.4,-,N/A,Snow,Snow Showers,300,2012-11-20 11:14:00
8:19 PM,30.2,28.4,93,29.65,0.6,WNW,9.2,-,N/A,Snow,Light Snow Showers,290,2012-11-20 11:19:00
8:22 PM,30.2,28.4,93,29.65,-9999.0,WNW,9.2,-,N/A,Snow,Light Snow Showers,290,2012-11-20 11:22:00
8:25 PM,30.2,28.4,93,29.65,3.1,WNW,8.1,-,N/A,Snow,Light Snow Showers,290,2012-11-20 11:25:00